Location: Newark
(32.9900°N, 111.5400°W)
Time: 20:54:31
(UTC+00:00)

N. Korean satellite - Pass Details

Date: 28 November 2019
Orbit: 455 x 507 km, 97.2° (Epoch: 13 December)

Event Time Altitude Azimuth Distance (km) Brightness Sun altitude
Rises 13:19:44 0° 8° (N) 2,574 10.1 -10.3°
Reaches altitude 10° 13:21:50 10° 6° (N) 1,680 9.2 -9.9°
Maximum altitude 13:25:25 70° 283° (WNW) 516 6.5 -9.2°
Drops below altitude 10° 13:28:56 10° 199° (SSW) 1,638 9.3 -8.5°
Sets 13:30:58 0° 197° (SSW) 2,503 10.2 -8.1°
